EDT,Max TemperatureF,Mean TemperatureF,Min TemperatureF,Max Dew PointF,MeanDew PointF,Min DewpointF,Max Humidity, Mean Humidity, Min Humidity, Max Sea Level PressureIn, Mean Sea Level PressureIn, Min Sea Level PressureIn, Max VisibilityMiles, Mean VisibilityMiles, Min VisibilityMiles, Max Wind SpeedMPH, Mean Wind SpeedMPH, Max Gust SpeedMPH,PrecipitationIn, CloudCover, Events, WindDirDegrees
2013-8-1,90,86,82,76,74,72,79,69,59,30.01,29.98,29.94,10,10,10,13,10,,0.00,3,,99
2013-8-2,98,86,79,77,75,73,90,73,57,30.07,30.00,29.94,10,10,6,8,4,,0.00,4,Thunderstorm,167
2013-8-3,90,86,82,77,76,74,82,74,65,30.12,30.08,30.04,10,10,10,10,6,,0.00,4,,181
2013-8-4,91,86,80,77,75,72,85,72,59,30.12,30.07,30.02,10,10,10,8,3,,0.00,4,,26
2013-8-5,91,84,77,76,75,72,90,73,57,30.08,30.03,29.99,10,10,10,8,3,,0.00,4,,306
2013-8-6,107,82,78,79,76,74,100,80,72,30.00,29.96,29.92,10,9,1,17,6,22,0.29,5,Rain-Thunderstorm,276
2013-8-7,89,84,79,78,76,74,90,77,65,29.95,29.93,29.90,10,10,9,14,4,,0.00,3,,116
2013-8-8,90,84,78,77,75,73,89,76,63,29.97,29.93,29.90,10,9,2,21,14,30,0.17,4,Rain,119
2013-8-9,88,80,75,75,73,70,94,75,61,30.02,29.98,29.91,10,9,2,31,13,41,0.25,4,Rain-Thunderstorm,121
2013-8-10,89,84,80,79,76,74,94,80,67,30.08,30.03,29.99,10,9,2,18,13,23,0.23,6,Rain-Thunderstorm,98
2013-8-11,91,86,82,78,77,75,85,74,65,30.11,30.07,30.02,10,10,10,20,15,24,0.00,3,,90
2013-8-12,90,86,81,76,75,73,82,73,63,30.08,30.04,29.99,10,9,6,17,10,20,0.00,3,,72
2013-8-13,90,84,80,77,75,74,85,73,65,30.04,30.00,29.96,10,9,6,15,11,,0.00,2,,102
2013-8-14,90,85,78,77,75,72,89,72,63,30.02,29.97,29.92,10,9,2,20,10,25,0.00,4,Thunderstorm,119
2013-8-15,88,82,77,79,76,74,94,82,69,30.05,30.00,29.96,10,10,3,13,7,,0.23,5,Thunderstorm,108
2013-8-16,90,85,80,79,78,76,94,80,70,30.04,30.00,29.96,10,10,7,18,10,,0.00,4,,102
2013-8-17,91,86,82,78,76,75,82,74,65,30.05,30.01,29.98,10,10,3,17,11,,0.00,3,,111
2013-8-18,91,86,82,78,76,74,85,74,65,30.05,30.01,29.96,10,10,10,20,14,,0.00,4,,97
2013-8-19,91,84,77,78,76,72,88,75,63,30.02,29.98,29.95,10,10,10,24,13,30,0.15,4,Rain-Thunderstorm,107
2013-8-20,89,81,75,78,75,72,94,83,69,30.04,30.00,29.95,10,9,2,21,10,33,0.30,5,Rain-Thunderstorm,65
2013-8-21,90,84,78,79,77,73,91,81,67,30.05,30.01,29.96,10,9,2,23,9,32,0.34,3,Rain-Thunderstorm,96
2013-8-22,90,84,79,81,77,73,94,83,70,30.03,29.98,29.93,10,9,2,18,14,25,0.21,4,Rain-Thunderstorm,104
2013-8-23,90,86,82,78,76,74,84,75,65,30.01,29.96,29.92,10,10,10,15,11,18,0.00,2,,112
2013-8-24,90,84,81,77,76,74,85,76,67,30.08,30.02,29.96,10,10,10,10,9,,0.03,3,,119
2013-8-25,90,86,82,78,76,72,85,75,57,30.12,30.07,30.02,10,10,10,15,9,22,0.01,3,Thunderstorm,87
2013-8-26,91,80,77,77,75,72,94,82,65,30.10,30.05,29.99,10,9,2,14,9,22,0.19,6,Rain-Thunderstorm,90
2013-8-27,84,80,77,75,72,66,88,77,62,30.04,30.00,29.96,10,10,10,13,6,,0.00,5,,70
2013-8-28,87,80,75,75,72,67,84,75,64,30.04,29.99,29.95,10,10,10,12,6,16,0.00,4,Thunderstorm,37
2013-8-29,88,82,75,76,74,72,90,77,63,30.04,29.99,29.95,10,10,10,7,3,,0.00,3,,239
2013-8-30,91,84,78,75,74,72,84,74,59,30.02,29.96,29.93,10,10,9,8,4,,0.00,3,,220
2013-8-31,89,83,78,76,74,72,88,76,61,30.00,29.96,29.92,10,10,5,14,4,21,0.01,3,Rain-Thunderstorm,151